Worcester, MA

5:20 PM EST on January 17, 2018 (GMT -0500)
Worcester Regional

Weather History for KORH - June, 2012

Change the Weather History Date:

Monday, June 18, 2012

  Actual Average Record
Temperature  
Mean Temperature 62 °F 66 °F  
Max Temperature 70 °F 75 °F 93 °F (1929)
Min Temperature 53 °F 57 °F 40 °F (1950)
Degree Days  
Heating Degree Days 3 2  
Month to date heating degree days 75 66  
Since 1 June heating degree days 75 66  
Since 1 July heating degree days 5290 6700  
Cooling Degree Days 0 3  
Month to date cooling degree days 4 39  
Year to date cooling degree days 65 61  
Since 1 June cooling degree days 4 39  
Growing Degree Days 11 (Base 50)    
Moisture  
Dew Point 50 °F    
Average Humidity 71    
Maximum Humidity 89    
Minimum Humidity 53    
Precipitation  
Precipitation 0.00 in 0.13 in 2.15 in (1943)
Month to date precipitation 4.06 2.69  
Year to date precipitation 17.29 21.92  
Snow  
Snow 0.00 in 0.00 in 0.00 in (2002)
Month to date snowfall 0.0 0.0  
Since 1 June snowfall 0.0 0.0  
Since 1 July snowfall 39.7 64.1  
Snow Depth 0.00 in    
Sea Level Pressure  
Sea Level Pressure 30.16 in    
Wind  
Wind Speed 4 mph (SE)    
Max Wind Speed 13 mph    
Max Gust Speed 17 mph    
Visibility 10 miles    
Events      
T = Trace of Precipitation, MM = Missing Value Source: NWS Daily Summary

Daily Weather History Graph

Daily Weather History Graph

Search for Another Location

Airport or City:

Trip Planner

Search our weather history database for the weather conditions in past years. The results will help you decide how hot, cold, wet, or windy it might be!

Date:

Astronomy

Jun. 18, 2012 Rise Set
Actual Time 5:10 AM EDT 8:26 PM EDT
Civil Twilight 4:35 AM EDT 9:01 PM EDT
Nautical Twilight 3:51 AM EDT 9:46 PM EDT
Astronomical Twilight 2:56 AM EDT 10:41 PM EDT
Moon 4:23 AM EDT (6/18) 7:42 PM EDT (6/18)
Length of Visible Light 16h 25m
Length of Day
15h 16m
Waning Crescent, 1% of the Moon is Illuminated
Jun 18
Waning Crescent
Jun 19
New
Jun 26
First Quarter
Jul 3
Full
Jul 10
Last Quarter

Hourly Weather History & Observations

Time (EDT) Temp. Dew Point Humidity Pressure Visibility Wind Dir Wind Speed Gust Speed Precip Events Conditions
12:54 AM 55.0 °F 48.0 °F 77% 30.17 in 10.0 mi SE 4.6 mph - N/A   Overcast
1:06 AM 55.4 °F 48.2 °F 77% 30.16 in 10.0 mi Calm Calm - N/A   Overcast
1:27 AM 55.4 °F 48.2 °F 77% 30.16 in 10.0 mi SE 3.5 mph - N/A   Overcast
1:54 AM 55.0 °F 48.0 °F 77% 30.16 in 10.0 mi SSE 3.5 mph - N/A   Overcast
2:54 AM 55.0 °F 48.9 °F 80% 30.15 in 10.0 mi Calm Calm - N/A   Overcast
3:54 AM 54.0 °F 48.9 °F 83% 30.15 in 10.0 mi ESE 3.5 mph - N/A   Overcast
4:54 AM 54.0 °F 48.9 °F 83% 30.14 in 10.0 mi ESE 3.5 mph - N/A   Overcast
5:01 AM 53.6 °F 48.2 °F 82% 30.14 in 10.0 mi East 3.5 mph - N/A   Overcast
5:54 AM 53.1 °F 50.0 °F 89% 30.15 in 10.0 mi ESE 3.5 mph - N/A   Overcast
6:54 AM 54.0 °F 50.0 °F 86% 30.16 in 10.0 mi Calm Calm - N/A   Overcast
7:54 AM 54.0 °F 48.9 °F 83% 30.17 in 10.0 mi Variable 3.5 mph - N/A   Overcast
8:54 AM 55.0 °F 48.9 °F 80% 30.18 in 10.0 mi Variable 3.5 mph - N/A   Overcast
9:08 AM 55.4 °F 48.2 °F 77% 30.17 in 10.0 mi East 4.6 mph - N/A   Overcast
9:23 AM 55.4 °F 48.2 °F 77% 30.16 in 10.0 mi East 3.5 mph - N/A   Overcast
9:54 AM 55.9 °F 48.9 °F 77% 30.17 in 10.0 mi ESE 3.5 mph - N/A   Overcast
10:01 AM 55.4 °F 50.0 °F 82% 30.16 in 10.0 mi Calm Calm - N/A   Overcast
10:27 AM 57.2 °F 50.0 °F 77% 30.17 in 10.0 mi Calm Calm - N/A   Overcast
10:54 AM 57.2 °F 50.0 °F 77% 30.17 in 10.0 mi Calm Calm - N/A   Overcast
11:54 AM 61.0 °F 50.0 °F 67% 30.17 in 10.0 mi Variable 3.5 mph - N/A   Mostly Cloudy
12:54 PM 61.0 °F 48.9 °F 64% 30.17 in 10.0 mi Calm Calm - N/A   Overcast
1:24 PM 64.4 °F 50.0 °F 59% 30.17 in 10.0 mi Variable 4.6 mph - N/A   Scattered Clouds
1:54 PM 64.9 °F 51.1 °F 61% 30.17 in 10.0 mi SSE 6.9 mph - N/A   Partly Cloudy
2:54 PM 66.0 °F 51.1 °F 59% 30.15 in 10.0 mi Variable 4.6 mph - N/A   Scattered Clouds
3:54 PM 68.0 °F 51.1 °F 55% 30.15 in 10.0 mi SSW 4.6 mph - N/A   Mostly Cloudy
4:54 PM 69.1 °F 51.1 °F 53% 30.13 in 10.0 mi Variable 4.6 mph - N/A   Mostly Cloudy
5:54 PM 66.9 °F 51.1 °F 57% 30.13 in 10.0 mi SSE 4.6 mph - N/A   Clear
6:54 PM 68.0 °F 50.0 °F 52% 30.12 in 10.0 mi SSE 6.9 mph - N/A   Clear
7:54 PM 64.9 °F 55.0 °F 70% 30.12 in 10.0 mi Variable 5.8 mph - N/A   Clear
8:54 PM 62.1 °F 54.0 °F 75% 30.14 in 10.0 mi South 5.8 mph - N/A   Clear
9:54 PM 59.0 °F 53.1 °F 81% 30.17 in 10.0 mi SW 9.2 mph - N/A   Clear
10:54 PM 57.0 °F 52.0 °F 83% 30.16 in 10.0 mi SSW 9.2 mph - N/A   Clear
11:54 PM 55.0 °F 52.0 °F 89% 30.17 in 10.0 mi SW 8.1 mph - N/A   Clear